{"data":{"norad_id":54859,"epoch":"2026-05-25T00:33:50.451840Z","epoch_age_seconds":76105,"freshness":"FRESH","line1":"1 54859U 22177AR  26145.02350060  .00000295  00000+0  20231-4 0  9991","line2":"2 54859  43.0042  50.5906 0001248 252.7660 107.3055 15.27575958188769","mean_motion":15.27575958,"eccentricity":0.0001248,"inclination_deg":43.0042,"raan_deg":50.5906,"arg_perigee_deg":252.766,"mean_anomaly_deg":107.3055,"bstar":2.0231e-5,"rev_number":18876,"period_min":94.266998145568,"perigee_km":482.20492173317,"apogee_km":483.91747680371,"semimajor_km":6861.1981992684,"source":"CELESTRAK","updated_at":"2026-05-25T13:38:17.727395Z"}}